TimeEDT,TemperatureF,Dew PointF,Humidity,Sea Level PressureIn,VisibilityMPH,Wind Direction,Wind SpeedMPH,Gust SpeedMPH,PrecipitationIn,Events,Conditions,WindDirDegrees,DateUTC
12:54 AM,57.0,48.9,74,29.90,10.0,East,3.5,-,N/A,,Clear,80,2013-06-16 04:54:00
1:54 AM,55.9,48.0,75,29.89,10.0,East,3.5,-,N/A,,Clear,100,2013-06-16 05:54:00
2:54 AM,55.9,46.9,72,29.89,10.0,Variable,4.6,-,N/A,,Clear,0,2013-06-16 06:54:00
3:54 AM,60.1,45.0,57,29.88,10.0,South,5.8,-,N/A,,Scattered Clouds,180,2013-06-16 07:54:00
4:54 AM,60.1,45.0,57,29.88,10.0,South,9.2,-,N/A,,Mostly Cloudy,180,2013-06-16 08:54:00
5:54 AM,60.1,44.1,55,29.87,10.0,South,10.4,-,N/A,,Partly Cloudy,180,2013-06-16 09:54:00
6:54 AM,63.0,45.0,52,29.87,10.0,SSW,11.5,-,N/A,,Partly Cloudy,200,2013-06-16 10:54:00
7:54 AM,63.0,46.0,54,29.86,10.0,South,9.2,-,N/A,,Scattered Clouds,190,2013-06-16 11:54:00
8:54 AM,66.0,44.1,45,29.85,10.0,SSW,20.7,26.5,N/A,,Mostly Cloudy,200,2013-06-16 12:54:00
9:54 AM,64.9,46.0,50,29.83,10.0,South,12.7,21.9,N/A,,Overcast,180,2013-06-16 13:54:00
10:54 AM,66.9,50.0,54,29.80,10.0,South,13.8,20.7,N/A,,Overcast,190,2013-06-16 14:54:00
11:54 AM,66.0,55.0,68,29.77,10.0,South,6.9,-,0.00,,Overcast,180,2013-06-16 15:54:00
12:54 PM,63.0,55.9,78,29.76,7.0,Calm,Calm,-,0.04,Rain,Rain,0,2013-06-16 16:54:00
12:57 PM,62.6,55.4,77,29.76,5.0,Calm,Calm,-,0.01,Rain,Rain,0,2013-06-16 16:57:00
1:54 PM,62.1,57.9,86,29.74,7.0,North,5.8,-,0.08,Rain,Light Rain,350,2013-06-16 17:54:00
2:54 PM,62.1,60.1,93,29.73,7.0,ENE,3.5,-,0.09,Rain,Light Rain,70,2013-06-16 18:54:00
3:54 PM,63.0,60.1,90,29.71,7.0,South,6.9,-,0.08,Rain,Light Rain,170,2013-06-16 19:54:00
4:54 PM,63.0,59.0,87,29.69,10.0,SSE,5.8,-,0.01,Rain,Light Rain,150,2013-06-16 20:54:00
5:54 PM,63.0,59.0,87,29.68,10.0,South,9.2,-,0.00,,Overcast,190,2013-06-16 21:54:00
6:54 PM,63.0,59.0,87,29.69,10.0,SSW,8.1,-,N/A,,Overcast,200,2013-06-16 22:54:00
7:54 PM,63.0,59.0,87,29.71,10.0,SSW,5.8,-,N/A,,Overcast,200,2013-06-16 23:54:00
8:54 PM,63.0,59.0,87,29.73,10.0,SW,5.8,-,N/A,,Overcast,220,2013-06-17 00:54:00
9:07 PM,62.6,59.0,88,29.74,10.0,SSW,6.9,-,N/A,,Overcast,210,2013-06-17 01:07:00
9:54 PM,63.0,59.0,87,29.77,10.0,West,3.5,-,N/A,,Overcast,270,2013-06-17 01:54:00
10:42 PM,62.6,59.0,88,29.79,10.0,North,5.8,-,N/A,,Overcast,10,2013-06-17 02:42:00
10:54 PM,61.0,57.9,90,29.79,10.0,North,4.6,-,N/A,,Overcast,360,2013-06-17 02:54:00
11:54 PM,60.1,57.0,90,29.80,10.0,NNE,4.6,-,N/A,,Mostly Cloudy,20,2013-06-17 03:54:00